User: anonymous   Login
Location: Biltmore Gardens
(41.6070°N, 83.4666°W)
Time: 13:28:41
(UTC+00:00)
Language:

A-11 Canister half - Orbit

View from above orbital plane
View from above orbital plane
View from above satellite
View from above satellite

Ground track
Ground track

The orbit data is extracted from the following two-line orbital elements,

1    51U 60009C   21113.04619056 -.00000024  00000-0  59074-3 0  9995
2    51  47.2108 109.6187 0106969   2.2172 357.9072 12.18274437701827
Epoch (UTC): 23 April 2021 01:06:30
Eccentricity: 0.0106969
inclination: 47.2108°
perigee height: 1515 km
apogee height: 1685 km
right ascension of ascending node: 109.6187°
argument of perigee: 2.2172°
revolutions per day: 12.18274437
mean anomaly at epoch: 357.9072°
orbit number at epoch: 70182

The dashed part of the orbit path shows where the satellite is in the earth's shadow,  

DLR